TimeEDT,TemperatureF,Dew PointF,Humidity,Sea Level PressureIn,VisibilityMPH,Wind Direction,Wind SpeedMPH,Gust SpeedMPH,PrecipitationIn,Events,Conditions,WindDirDegrees,DateUTC
12:56 AM,62.1,48.0,60,29.97,10.0,SSW,8.1,-,N/A,,Clear,200,2012-10-26 04:56:00
1:56 AM,61.0,48.0,62,29.97,10.0,SSW,8.1,-,N/A,,Clear,200,2012-10-26 05:56:00
2:56 AM,60.1,46.9,62,29.97,10.0,SSW,8.1,-,N/A,,Clear,210,2012-10-26 06:56:00
3:56 AM,57.9,46.9,67,29.99,10.0,SSW,5.8,-,N/A,,Clear,200,2012-10-26 07:56:00
4:56 AM,57.9,46.9,67,29.99,10.0,South,6.9,-,N/A,,Clear,190,2012-10-26 08:56:00
5:56 AM,55.9,46.9,72,30.00,10.0,South,6.9,-,N/A,,Clear,180,2012-10-26 09:56:00
6:56 AM,55.9,46.9,72,30.04,10.0,SSW,4.6,-,N/A,,Mostly Cloudy,200,2012-10-26 10:56:00
7:56 AM,51.1,46.9,86,30.06,10.0,Calm,Calm,-,N/A,,Scattered Clouds,0,2012-10-26 11:56:00
9:56 AM,57.0,51.1,81,30.11,10.0,NNW,10.4,-,N/A,,Mostly Cloudy,340,2012-10-26 13:56:00
10:56 AM,53.1,46.9,80,30.15,10.0,NNW,10.4,-,N/A,,Overcast,330,2012-10-26 14:56:00
11:56 AM,53.1,48.0,83,30.15,10.0,NNW,8.1,-,N/A,,Overcast,340,2012-10-26 15:56:00
12:56 PM,53.1,48.0,83,30.14,10.0,North,8.1,-,N/A,,Overcast,10,2012-10-26 16:56:00
1:56 PM,52.0,46.9,83,30.13,10.0,North,12.7,-,N/A,,Overcast,360,2012-10-26 17:56:00
2:18 PM,51.8,46.4,82,30.13,10.0,North,11.5,-,N/A,,Overcast,360,2012-10-26 18:18:00
2:56 PM,51.1,46.9,86,30.12,10.0,North,10.4,-,N/A,,Overcast,360,2012-10-26 18:56:00
3:56 PM,50.0,46.9,89,30.13,7.0,North,13.8,-,N/A,,Overcast,360,2012-10-26 19:56:00
4:56 PM,48.9,46.9,93,30.14,2.5,NNW,10.4,17.3,N/A,,Overcast,340,2012-10-26 20:56:00
5:19 PM,48.2,46.4,93,30.14,2.0,North,9.2,-,0.00,,Overcast,360,2012-10-26 21:19:00
5:34 PM,48.2,46.4,93,30.14,3.0,North,11.5,-,0.00,,Overcast,360,2012-10-26 21:34:00
5:41 PM,48.2,46.4,93,30.13,2.0,North,12.7,19.6,0.00,Rain,Light Rain,360,2012-10-26 21:41:00
5:56 PM,48.0,46.0,93,30.14,3.0,North,12.7,-,0.00,,Overcast,10,2012-10-26 21:56:00
6:10 PM,48.2,46.4,93,30.13,2.5,North,15.0,-,0.00,Rain,Light Rain,10,2012-10-26 22:10:00
6:25 PM,48.2,46.4,93,30.13,4.0,North,11.5,-,0.00,,Overcast,360,2012-10-26 22:25:00
6:56 PM,48.0,46.0,93,30.14,10.0,NNE,10.4,-,0.00,,Overcast,20,2012-10-26 22:56:00
7:08 PM,48.2,46.4,93,30.14,10.0,NNE,11.5,17.3,N/A,,Overcast,20,2012-10-26 23:08:00
7:44 PM,48.2,46.4,93,30.15,10.0,North,11.5,-,N/A,,Overcast,10,2012-10-26 23:44:00
7:56 PM,48.0,46.0,93,30.17,10.0,North,9.2,17.3,N/A,,Overcast,10,2012-10-26 23:56:00
8:56 PM,48.0,46.0,93,30.14,10.0,NNE,10.4,-,N/A,,Overcast,30,2012-10-27 00:56:00
9:38 PM,48.2,46.4,93,30.13,9.0,NNE,12.7,-,0.03,Rain,Light Rain,20,2012-10-27 01:38:00
9:49 PM,48.2,46.4,93,30.14,10.0,North,6.9,-,0.03,Rain,Light Rain,10,2012-10-27 01:49:00
9:56 PM,48.0,46.0,93,30.16,7.0,North,6.9,-,0.04,Rain,Light Rain,10,2012-10-27 01:56:00
10:56 PM,46.9,45.0,93,30.14,7.0,NNE,12.7,-,0.10,Rain,Light Rain,20,2012-10-27 02:56:00
11:22 PM,46.4,44.6,93,30.13,3.0,NE,13.8,-,0.08,Rain,Rain,50,2012-10-27 03:22:00
11:56 PM,46.9,45.0,93,30.12,10.0,NE,11.5,-,0.10,Rain,Light Rain,50,2012-10-27 03:56:00